AFR74UC LFPG-ENBR

Flight info

Callsign AFR74UC
Flight time 1h 54m
Altitude 37000
Route NURMO DCT CMB DCT VEKIN DCT ADUTO DCT VICOT/N0441F380 DCT GODOS DCT ROKAN/N0435F370 DCT LARGA DCT PENUN DCT PIXEG/N0444F380 DCT ALUVA
Aircraft A320/M-SDE2E3FGIJ1RWY/HB1

Departure

Time 2026-05-06 07:35
Airport Charles de Gaulle International Airport (LFPG)

Arrival

Time 2026-05-06 09:30
Airport Bergen Airport, Flesland (ENBR)
Time Latitude Longitude Altitude Speed Heading
2026-05-06 07:09 49.00700 2.57357 327 ft 0 kts 159°
2026-05-06 07:24 49.00712 2.57350 360 ft 4 kts 163°
2026-05-06 07:24 49.00738 2.57344 354 ft 4 kts 189°
2026-05-06 07:24 49.00757 2.57358 356 ft 4 kts 254°
2026-05-06 07:25 49.00759 2.57373 362 ft 1 kts 265°
2026-05-06 07:28 49.00735 2.57238 354 ft 11 kts 219°
2026-05-06 07:29 49.00686 2.57165 356 ft 10 kts 240°
2026-05-06 07:29 49.00656 2.57013 356 ft 16 kts 262°
2026-05-06 07:29 49.00648 2.56856 354 ft 14 kts 266°
2026-05-06 07:29 49.00640 2.56675 360 ft 22 kts 266°
2026-05-06 07:30 49.00627 2.56430 356 ft 24 kts 265°
2026-05-06 07:30 49.00613 2.56172 354 ft 25 kts 266°
2026-05-06 07:30 49.00578 2.55947 361 ft 21 kts 253°
2026-05-06 07:30 49.00561 2.55725 355 ft 21 kts 266°
2026-05-06 07:31 49.00552 2.55514 359 ft 19 kts 265°
2026-05-06 07:31 49.00497 2.55350 356 ft 17 kts 212°
2026-05-06 07:31 49.00386 2.55354 360 ft 16 kts 165°
2026-05-06 07:31 49.00284 2.55398 357 ft 15 kts 164°
2026-05-06 07:32 49.00179 2.55443 354 ft 18 kts 165°
2026-05-06 07:32 49.00067 2.55497 357 ft 16 kts 164°
2026-05-06 07:32 48.99961 2.55539 355 ft 16 kts 162°
2026-05-06 07:32 48.99872 2.55625 359 ft 15 kts 131°
2026-05-06 07:33 48.99815 2.55773 358 ft 16 kts 134°
2026-05-06 07:33 48.99722 2.55813 354 ft 12 kts 176°
2026-05-06 07:33 48.99711 2.55814 354 ft 0 kts 176°
2026-05-06 07:34 48.99670 2.55817 361 ft 13 kts 176°
2026-05-06 07:34 48.99600 2.55852 357 ft 7 kts 101°
2026-05-06 07:34 48.99614 2.56107 363 ft 57 kts 85°
2026-05-06 07:35 48.99665 2.57061 351 ft 121 kts 86°
2026-05-06 07:35 48.99747 2.58583 364 ft 168 kts 87°
2026-05-06 07:35 48.99803 2.60352 969 ft 166 kts 83°
2026-05-06 07:35 48.99892 2.62092 1727 ft 164 kts 79°
2026-05-06 07:36 48.99989 2.63814 2434 ft 163 kts 79°
2026-05-06 07:36 49.00088 2.65530 3066 ft 162 kts 80°
2026-05-06 07:36 49.00186 2.67241 3628 ft 165 kts 80°
2026-05-06 07:36 49.00295 2.69096 3895 ft 187 kts 81°
2026-05-06 07:37 49.00417 2.71192 4132 ft 211 kts 81°
2026-05-06 07:37 49.00549 2.73550 4467 ft 236 kts 82°
2026-05-06 07:37 49.00688 2.76164 4934 ft 258 kts 82°
2026-05-06 07:37 49.00829 2.78936 5742 ft 266 kts 83°
2026-05-06 07:38 49.00969 2.81765 6595 ft 270 kts 83°
2026-05-06 07:38 49.01301 2.84574 7389 ft 272 kts 65°
2026-05-06 07:38 49.02346 2.86970 8245 ft 274 kts 43°
2026-05-06 07:38 49.03935 2.88538 9033 ft 281 kts 20°
2026-05-06 07:39 49.05871 2.89026 9727 ft 289 kts 355°
2026-05-06 07:39 49.07901 2.88680 10242 ft 303 kts 352°
2026-05-06 07:39 49.10074 2.88281 10491 ft 326 kts 352°
2026-05-06 07:39 49.12373 2.87870 11051 ft 336 kts 352°
2026-05-06 07:40 49.14706 2.87461 11800 ft 338 kts 353°
2026-05-06 07:40 49.17050 2.87060 12575 ft 340 kts 352°
2026-05-06 07:40 49.19409 2.86657 13364 ft 342 kts 352°
2026-05-06 07:40 49.21787 2.86247 14079 ft 344 kts 352°
2026-05-06 07:41 49.24182 2.85830 14677 ft 349 kts 352°
2026-05-06 07:41 49.26608 2.85407 15283 ft 353 kts 352°
2026-05-06 07:41 49.29066 2.84978 15891 ft 357 kts 353°
2026-05-06 07:41 49.31550 2.84545 16563 ft 362 kts 352°
2026-05-06 07:42 49.34076 2.84102 17256 ft 367 kts 352°
2026-05-06 07:42 49.36623 2.83659 17948 ft 372 kts 353°
2026-05-06 07:42 49.39210 2.83209 18557 ft 376 kts 353°
2026-05-06 07:42 49.41819 2.82754 19214 ft 378 kts 353°
2026-05-06 07:43 49.44433 2.82296 19886 ft 379 kts 353°
2026-05-06 07:43 49.47064 2.81833 20501 ft 381 kts 353°
2026-05-06 07:43 49.49703 2.81369 21083 ft 382 kts 354°
2026-05-06 07:43 49.52348 2.80903 21671 ft 384 kts 354°
2026-05-06 07:44 49.55010 2.80431 22216 ft 386 kts 354°
2026-05-06 07:44 49.57690 2.79954 22731 ft 389 kts 354°
2026-05-06 07:44 49.60390 2.79476 23248 ft 392 kts 354°
2026-05-06 07:44 49.63068 2.79003 23711 ft 394 kts 355°
2026-05-06 07:45 49.65800 2.78522 24094 ft 397 kts 354°
2026-05-06 07:45 49.68555 2.78039 24486 ft 400 kts 355°
2026-05-06 07:45 49.71328 2.77551 24885 ft 402 kts 354°
2026-05-06 07:45 49.74123 2.77053 25212 ft 407 kts 354°
2026-05-06 07:46 49.76944 2.76549 25563 ft 409 kts 355°
2026-05-06 07:46 49.79795 2.76424 25928 ft 410 kts
2026-05-06 07:46 49.82617 2.77080 26267 ft 411 kts 15°
2026-05-06 07:46 49.85320 2.78494 26622 ft 411 kts 26°
2026-05-06 07:47 49.87827 2.80617 26973 ft 412 kts 33°
2026-05-06 07:47 49.90253 2.83002 27310 ft 414 kts 33°
2026-05-06 07:47 49.92695 2.85399 27657 ft 416 kts 33°
2026-05-06 07:47 49.95154 2.87810 27984 ft 419 kts 34°
2026-05-06 07:48 49.97625 2.90231 28328 ft 421 kts 34°
2026-05-06 07:48 50.00106 2.92668 28664 ft 423 kts 33°
2026-05-06 07:48 50.02601 2.95121 29094 ft 425 kts 33°
2026-05-06 07:48 50.05109 2.97589 29481 ft 428 kts 34°
2026-05-06 07:49 50.07628 3.00070 29802 ft 430 kts 34°
2026-05-06 07:49 50.10164 3.02575 30064 ft 432 kts 33°
2026-05-06 07:49 50.12711 3.05095 30345 ft 433 kts 33°
2026-05-06 07:49 50.15265 3.07629 30593 ft 436 kts 34°
2026-05-06 07:50 50.17823 3.10175 30805 ft 438 kts 34°
2026-05-06 07:50 50.20402 3.12746 30985 ft 440 kts 34°
2026-05-06 07:50 50.23024 3.15231 31206 ft 442 kts 28°
2026-05-06 07:50 50.25778 3.17227 31470 ft 442 kts 25°
2026-05-06 07:51 50.28589 3.19185 31784 ft 442 kts 25°
2026-05-06 07:51 50.31432 3.21170 32101 ft 442 kts 25°
2026-05-06 07:51 50.34239 3.23137 32399 ft 441 kts 25°
2026-05-06 07:51 50.37007 3.25086 32601 ft 443 kts 25°
2026-05-06 07:52 50.39855 3.27099 32893 ft 443 kts 25°
2026-05-06 07:52 50.42609 3.29095 33202 ft 442 kts 26°
2026-05-06 07:52 50.45373 3.31208 33502 ft 441 kts 27°
2026-05-06 07:52 50.48154 3.33408 33793 ft 441 kts 27°
2026-05-06 07:53 50.50888 3.35601 34039 ft 441 kts 27°
2026-05-06 07:53 50.53631 3.37747 34252 ft 442 kts 25°
2026-05-06 07:53 50.56428 3.39791 34439 ft 443 kts 24°
2026-05-06 07:53 50.59257 3.41757 34624 ft 444 kts 23°
2026-05-06 07:54 50.62096 3.43684 34846 ft 444 kts 23°
2026-05-06 07:54 50.64900 3.45578 35050 ft 444 kts 23°
2026-05-06 07:54 50.67743 3.47517 35222 ft 446 kts 23°
2026-05-06 07:54 50.70589 3.49490 35390 ft 446 kts 24°
2026-05-06 07:55 50.73434 3.51482 35559 ft 447 kts 23°
2026-05-06 07:55 50.76286 3.53493 35715 ft 448 kts 24°
2026-05-06 07:55 50.79136 3.55511 35880 ft 449 kts 24°
2026-05-06 07:55 50.81992 3.57534 36023 ft 450 kts 24°
2026-05-06 07:56 50.84856 3.59568 36189 ft 451 kts 24°
2026-05-06 07:56 50.87724 3.61606 36337 ft 452 kts 24°
2026-05-06 07:56 50.90595 3.63649 36495 ft 453 kts 24°
2026-05-06 07:56 50.93450 3.65680 36637 ft 453 kts 24°
2026-05-06 07:57 50.96345 3.67737 36812 ft 453 kts 23°
2026-05-06 07:57 50.99233 3.69786 36887 ft 454 kts 24°
2026-05-06 07:57 51.05000 3.73894 36885 ft 454 kts 24°
2026-05-06 07:58 51.10760 3.78012 36882 ft 454 kts 24°
2026-05-06 07:58 51.16523 3.82143 36879 ft 454 kts 24°
2026-05-06 07:59 51.22255 3.86270 36879 ft 455 kts 24°
2026-05-06 07:59 51.28029 3.90438 36883 ft 455 kts 24°
2026-05-06 08:00 51.33801 3.94612 36876 ft 455 kts 24°
2026-05-06 08:00 51.39571 3.98799 36870 ft 455 kts 24°
2026-05-06 08:01 51.45443 4.02608 36872 ft 455 kts 13°
2026-05-06 08:01 51.51694 4.03573 36877 ft 452 kts 354°
2026-05-06 08:02 51.57830 4.01791 36872 ft 451 kts 347°
2026-05-06 08:02 51.63976 3.99705 36871 ft 452 kts 347°
2026-05-06 08:03 51.70129 3.97620 36877 ft 452 kts 347°
2026-05-06 08:03 51.76290 3.95517 36886 ft 452 kts 347°
2026-05-06 08:04 51.82445 3.93406 36885 ft 453 kts 347°
2026-05-06 08:04 51.88608 3.91293 36889 ft 453 kts 347°
2026-05-06 08:05 51.93730 3.89539 36906 ft 453 kts 347°
2026-05-06 08:05 51.99902 3.87408 36893 ft 454 kts 346°
2026-05-06 08:06 52.06093 3.85262 36897 ft 454 kts 347°
2026-05-06 08:06 52.12277 3.83121 36891 ft 455 kts 347°
2026-05-06 08:07 52.18472 3.80975 36899 ft 455 kts 346°
2026-05-06 08:07 52.24673 3.78820 36911 ft 455 kts 346°
2026-05-06 08:08 52.30868 3.76649 36910 ft 455 kts 346°
2026-05-06 08:08 52.37017 3.74485 36923 ft 455 kts 347°
2026-05-06 08:09 52.43213 3.72309 36924 ft 455 kts 347°
2026-05-06 08:09 52.49396 3.70122 36935 ft 455 kts 346°
2026-05-06 08:10 52.55578 3.67930 36947 ft 454 kts 345°
2026-05-06 08:10 52.61769 3.65745 36942 ft 454 kts 345°
2026-05-06 08:11 52.67942 3.63552 36944 ft 454 kts 346°
2026-05-06 08:11 52.74112 3.61346 36959 ft 453 kts 346°
2026-05-06 08:12 52.80276 3.59137 36956 ft 453 kts 346°
2026-05-06 08:12 52.86394 3.56943 36961 ft 452 kts 345°
2026-05-06 08:13 52.92549 3.54727 36963 ft 452 kts 346°
2026-05-06 08:13 52.98700 3.52508 36982 ft 452 kts 345°
2026-05-06 08:14 53.04842 3.50286 36980 ft 451 kts 346°
2026-05-06 08:14 53.10981 3.48054 36976 ft 451 kts 345°
2026-05-06 08:15 53.17109 3.45819 36957 ft 451 kts 345°
2026-05-06 08:15 53.23245 3.43579 36959 ft 451 kts 345°
2026-05-06 08:16 53.29176 3.40519 36954 ft 449 kts 338°
2026-05-06 08:16 53.35087 3.37098 36981 ft 449 kts 338°
2026-05-06 08:17 53.40998 3.33674 36982 ft 449 kts 338°
2026-05-06 08:17 53.46911 3.30249 36984 ft 449 kts 338°
2026-05-06 08:18 53.52818 3.26802 36990 ft 449 kts 338°
2026-05-06 08:18 53.58720 3.23329 36978 ft 449 kts 338°
2026-05-06 08:19 53.64846 3.21231 36974 ft 453 kts 358°
2026-05-06 08:19 53.71087 3.22785 36998 ft 457 kts 18°
2026-05-06 08:20 53.76878 3.27106 36982 ft 459 kts 24°
2026-05-06 08:20 53.82673 3.31662 36982 ft 459 kts 24°
2026-05-06 08:21 53.88469 3.36228 36980 ft 460 kts 24°
2026-05-06 08:21 53.94283 3.40800 36985 ft 460 kts 24°
2026-05-06 08:22 54.00092 3.45371 36993 ft 460 kts 24°
2026-05-06 08:22 54.05899 3.49971 36989 ft 460 kts 24°
2026-05-06 08:23 54.11706 3.54601 36986 ft 461 kts 24°
2026-05-06 08:23 54.17516 3.59241 36990 ft 461 kts 24°
2026-05-06 08:24 54.23326 3.63884 37000 ft 461 kts 24°
2026-05-06 08:24 54.29103 3.68510 37003 ft 461 kts 24°
2026-05-06 08:25 54.34910 3.73196 36991 ft 461 kts 24°
2026-05-06 08:25 54.40717 3.77904 36993 ft 462 kts 24°
2026-05-06 08:26 54.46539 3.82630 37004 ft 463 kts 24°
2026-05-06 08:26 54.52362 3.87358 36998 ft 463 kts 24°
2026-05-06 08:27 54.58189 3.92114 36997 ft 463 kts 24°
2026-05-06 08:27 54.64021 3.96881 37003 ft 464 kts 24°
2026-05-06 08:28 54.69855 4.01672 37023 ft 464 kts 24°
2026-05-06 08:28 54.75689 4.06480 37020 ft 464 kts 24°
2026-05-06 08:29 54.81515 4.11305 37027 ft 464 kts 24°
2026-05-06 08:29 54.87436 4.15488 37013 ft 461 kts 12°
2026-05-06 08:30 54.93764 4.17446 37034 ft 459 kts
2026-05-06 08:30 55.00034 4.19248 37032 ft 459 kts
2026-05-06 08:31 55.06345 4.21079 37023 ft 459 kts
2026-05-06 08:31 55.12656 4.22912 37026 ft 460 kts
2026-05-06 08:32 55.18959 4.24749 37024 ft 460 kts
2026-05-06 08:32 55.25280 4.26598 37044 ft 460 kts
2026-05-06 08:33 55.31593 4.28449 37040 ft 460 kts
2026-05-06 08:33 55.37907 4.30296 37038 ft 460 kts
2026-05-06 08:34 55.47379 4.33080 37054 ft 460 kts
2026-05-06 08:35 55.53703 4.34954 37045 ft 461 kts
2026-05-06 08:35 55.60038 4.36846 37044 ft 462 kts
2026-05-06 08:36 55.66372 4.38736 37045 ft 462 kts
2026-05-06 08:36 55.72681 4.40618 37070 ft 462 kts
2026-05-06 08:37 55.79033 4.42528 37063 ft 463 kts
2026-05-06 08:37 55.85403 4.44460 37063 ft 463 kts
2026-05-06 08:38 55.91761 4.46375 37066 ft 463 kts
2026-05-06 08:38 55.98125 4.48289 37064 ft 464 kts
2026-05-06 08:39 56.04453 4.50207 37064 ft 464 kts
2026-05-06 08:39 56.10816 4.52161 37064 ft 464 kts
2026-05-06 08:40 56.17180 4.54114 37064 ft 464 kts
2026-05-06 08:40 56.23536 4.56068 37092 ft 464 kts
2026-05-06 08:41 56.29904 4.58029 37080 ft 464 kts
2026-05-06 08:41 56.36263 4.60011 37057 ft 464 kts
2026-05-06 08:42 56.42631 4.61989 37054 ft 464 kts
2026-05-06 08:42 56.49004 4.63959 37087 ft 464 kts
2026-05-06 08:43 56.55370 4.65949 37072 ft 464 kts
2026-05-06 08:43 56.61744 4.67950 37066 ft 465 kts
2026-05-06 08:44 56.68118 4.69964 37064 ft 465 kts
2026-05-06 08:44 56.74500 4.71968 37064 ft 466 kts
2026-05-06 08:45 56.80888 4.73987 37085 ft 466 kts
2026-05-06 08:45 56.87276 4.76032 37079 ft 466 kts
2026-05-06 08:46 56.93666 4.78062 37076 ft 466 kts
2026-05-06 08:46 57.00053 4.80114 37073 ft 466 kts
2026-05-06 08:47 57.06399 4.82151 37096 ft 466 kts
2026-05-06 08:47 57.12788 4.84213 37084 ft 466 kts
2026-05-06 08:48 57.19173 4.86289 37081 ft 466 kts
2026-05-06 08:48 57.25563 4.88355 37077 ft 466 kts
2026-05-06 08:49 57.31955 4.90432 37097 ft 466 kts
2026-05-06 08:49 57.38341 4.92508 37085 ft 466 kts
2026-05-06 08:50 57.44725 4.94605 37083 ft 466 kts
2026-05-06 08:50 57.51122 4.96329 37080 ft 460 kts 356°
2026-05-06 08:51 57.57508 4.96354 37104 ft 459 kts 355°
2026-05-06 08:51 57.63887 4.96374 37090 ft 459 kts 355°
2026-05-06 08:52 57.69188 4.96413 37083 ft 459 kts 355°
2026-05-06 08:52 57.76613 4.96452 37077 ft 458 kts 355°
2026-05-06 08:53 57.81959 4.96466 37075 ft 459 kts 355°
2026-05-06 08:53 57.88346 4.96473 37098 ft 459 kts 354°
2026-05-06 08:54 57.94689 4.96488 37088 ft 459 kts 354°
2026-05-06 08:54 58.01069 4.96501 37081 ft 458 kts 354°
2026-05-06 08:55 58.07448 4.96525 37077 ft 458 kts 355°
2026-05-06 08:55 58.13830 4.96555 37106 ft 459 kts 354°
2026-05-06 08:56 58.20220 4.96569 37090 ft 459 kts 354°
2026-05-06 08:56 58.26605 4.96584 37080 ft 459 kts 354°
2026-05-06 08:57 58.32990 4.96601 37078 ft 459 kts 354°
2026-05-06 08:57 58.39372 4.96629 37108 ft 459 kts 354°
2026-05-06 08:57 58.42562 4.96645 36897 ft 460 kts 354°
2026-05-06 08:58 58.45789 4.96652 35974 ft 466 kts 354°
2026-05-06 08:58 58.49037 4.96657 35208 ft 467 kts 353°
2026-05-06 08:58 58.52231 4.96668 34710 ft 463 kts 353°
2026-05-06 08:58 58.55445 4.96683 34135 ft 461 kts 353°
2026-05-06 08:59 58.58641 4.96703 33503 ft 458 kts 353°
2026-05-06 08:59 58.61808 4.96726 32953 ft 453 kts 353°
2026-05-06 08:59 58.64943 4.96743 32394 ft 448 kts 353°
2026-05-06 08:59 58.68047 4.96752 31844 ft 445 kts 353°
2026-05-06 09:00 58.71129 4.96755 31297 ft 441 kts 353°
2026-05-06 09:00 58.74189 4.96759 30763 ft 438 kts 353°
2026-05-06 09:00 58.77227 4.96768 30233 ft 435 kts 353°
2026-05-06 09:00 58.80242 4.96784 29661 ft 431 kts 353°
2026-05-06 09:01 58.83226 4.96798 29164 ft 426 kts 353°
2026-05-06 09:01 58.86175 4.96810 28662 ft 421 kts 352°
2026-05-06 09:01 58.89082 4.96818 28180 ft 416 kts 352°
2026-05-06 09:01 58.91958 4.96824 27711 ft 411 kts 352°
2026-05-06 09:02 58.94800 4.96853 27313 ft 406 kts 352°
2026-05-06 09:02 58.97607 4.96877 27028 ft 398 kts 352°
2026-05-06 09:02 59.00354 4.96886 26764 ft 393 kts 352°
2026-05-06 09:02 59.03080 4.96890 26501 ft 390 kts 352°
2026-05-06 09:03 59.05783 4.96891 26245 ft 388 kts 352°
2026-05-06 09:03 59.08447 4.96887 26048 ft 385 kts 352°
2026-05-06 09:03 59.11128 4.96883 26050 ft 386 kts 352°
2026-05-06 09:03 59.13814 4.96878 26049 ft 386 kts 352°
2026-05-06 09:04 59.16498 4.96877 26049 ft 386 kts 352°
2026-05-06 09:04 59.19187 4.96882 26049 ft 386 kts 352°
2026-05-06 09:04 59.21870 4.96890 26047 ft 386 kts 352°
2026-05-06 09:04 59.24559 4.96901 26096 ft 386 kts 351°
2026-05-06 09:05 59.27250 4.96912 26094 ft 387 kts 351°
2026-05-06 09:05 59.29943 4.96920 26094 ft 387 kts 351°
2026-05-06 09:05 59.32633 4.96929 26093 ft 387 kts 351°
2026-05-06 09:05 59.35327 4.96941 26093 ft 387 kts 351°
2026-05-06 09:06 59.38017 4.96952 26093 ft 387 kts 351°
2026-05-06 09:06 59.40700 4.96859 26094 ft 384 kts 348°
2026-05-06 09:06 59.43360 4.96539 26094 ft 382 kts 346°
2026-05-06 09:06 59.46004 4.96077 26095 ft 381 kts 345°
2026-05-06 09:07 59.48639 4.95558 25767 ft 381 kts 345°
2026-05-06 09:07 59.51319 4.95017 24943 ft 392 kts 345°
2026-05-06 09:07 59.54005 4.94506 24391 ft 392 kts 345°
2026-05-06 09:07 59.56735 4.94037 23706 ft 385 kts 345°
2026-05-06 09:08 59.59357 4.93617 22772 ft 380 kts 346°
2026-05-06 09:08 59.61983 4.93205 22063 ft 378 kts 346°
2026-05-06 09:08 59.64582 4.92800 21435 ft 370 kts 346°
2026-05-06 09:08 59.67112 4.92404 20843 ft 357 kts 346°
2026-05-06 09:09 59.69542 4.92019 20417 ft 348 kts 346°
2026-05-06 09:09 59.71943 4.91619 19984 ft 345 kts 346°
2026-05-06 09:09 59.74333 4.91213 19553 ft 343 kts 346°
2026-05-06 09:09 59.76703 4.90810 19122 ft 341 kts 346°
2026-05-06 09:10 59.79057 4.90379 18696 ft 338 kts 345°
2026-05-06 09:10 59.81378 4.89802 18274 ft 335 kts 343°
2026-05-06 09:10 59.83681 4.89135 17814 ft 332 kts 343°
2026-05-06 09:10 59.85948 4.88443 17401 ft 328 kts 342°
2026-05-06 09:11 59.88197 4.87753 16997 ft 325 kts 343°
2026-05-06 09:11 59.90426 4.87077 16601 ft 322 kts 343°
2026-05-06 09:11 59.92607 4.86430 16218 ft 320 kts 343°
2026-05-06 09:11 59.94797 4.85797 15813 ft 317 kts 344°
2026-05-06 09:12 59.96980 4.85174 15426 ft 315 kts 344°
2026-05-06 09:12 59.99140 4.84560 15036 ft 313 kts 344°
2026-05-06 09:12 60.01292 4.83948 14644 ft 311 kts 344°
2026-05-06 09:12 60.03432 4.83338 14267 ft 309 kts 345°
2026-05-06 09:13 60.05558 4.82732 13880 ft 308 kts 345°
2026-05-06 09:13 60.07673 4.82124 13465 ft 305 kts 345°
2026-05-06 09:13 60.09769 4.81511 13081 ft 303 kts 346°
2026-05-06 09:13 60.11849 4.80902 12683 ft 300 kts 347°
2026-05-06 09:14 60.13908 4.80305 12300 ft 298 kts 347°
2026-05-06 09:14 60.15951 4.79716 11927 ft 295 kts 347°
2026-05-06 09:14 60.17950 4.79144 11731 ft 287 kts 348°
2026-05-06 09:14 60.19919 4.78575 11334 ft 286 kts 348°
2026-05-06 09:15 60.21895 4.78000 10888 ft 287 kts 348°
2026-05-06 09:15 60.23863 4.77426 10456 ft 287 kts 349°
2026-05-06 09:15 60.25821 4.76856 10072 ft 286 kts 349°
2026-05-06 09:15 60.27785 4.76284 9691 ft 283 kts 350°
2026-05-06 09:16 60.29705 4.75723 9308 ft 281 kts 350°
2026-05-06 09:16 60.31640 4.75156 8885 ft 279 kts 350°
2026-05-06 09:16 60.33552 4.74596 8429 ft 272 kts 350°
2026-05-06 09:16 60.35354 4.74073 8252 ft 251 kts 350°
2026-05-06 09:17 60.37048 4.73577 7832 ft 242 kts 349°
2026-05-06 09:17 60.38683 4.73093 7662 ft 237 kts 349°
2026-05-06 09:17 60.40319 4.72569 7529 ft 238 kts 344°
2026-05-06 09:17 60.41871 4.71531 7395 ft 231 kts 338°
2026-05-06 09:18 60.43350 4.70448 7300 ft 224 kts 338°
2026-05-06 09:18 60.44814 4.69381 7248 ft 223 kts 338°
2026-05-06 09:18 60.46309 4.68671 7242 ft 226 kts 353°
2026-05-06 09:18 60.47905 4.68630 7244 ft 227 kts 358°
2026-05-06 09:19 60.49468 4.68651 7151 ft 227 kts 358°
2026-05-06 09:19 60.51048 4.68703 7021 ft 227 kts
2026-05-06 09:19 60.52596 4.69374 6891 ft 229 kts 18°
2026-05-06 09:19 60.54090 4.70504 6763 ft 229 kts 18°
2026-05-06 09:20 60.55583 4.71628 6633 ft 229 kts 18°
2026-05-06 09:20 60.57043 4.72932 6504 ft 230 kts 29°
2026-05-06 09:20 60.58319 4.74900 6371 ft 231 kts 39°
2026-05-06 09:20 60.59540 4.77020 6236 ft 231 kts 38°
2026-05-06 09:21 60.60758 4.79138 6095 ft 230 kts 41°
2026-05-06 09:21 60.61785 4.81637 5958 ft 231 kts 57°
2026-05-06 09:21 60.62548 4.84519 5824 ft 231 kts 64°
2026-05-06 09:21 60.62917 4.87688 5685 ft 231 kts 91°
2026-05-06 09:22 60.62580 4.90850 5549 ft 230 kts 118°
2026-05-06 09:22 60.61614 4.93381 5435 ft 227 kts 144°
2026-05-06 09:22 60.60239 4.94841 5266 ft 223 kts 166°
2026-05-06 09:22 60.58750 4.95727 5067 ft 223 kts 166°
2026-05-06 09:23 60.57264 4.96617 4861 ft 222 kts 166°
2026-05-06 09:23 60.55783 4.97507 4647 ft 221 kts 166°
2026-05-06 09:23 60.54306 4.98396 4439 ft 220 kts 165°
2026-05-06 09:23 60.52852 4.99271 4220 ft 217 kts 166°
2026-05-06 09:24 60.51442 5.00116 4031 ft 211 kts 166°
2026-05-06 09:24 60.50067 5.01187 3825 ft 208 kts 150°
2026-05-06 09:24 60.49004 5.03059 3641 ft 205 kts 129°
2026-05-06 09:24 60.48335 5.05578 3450 ft 203 kts 108°
2026-05-06 09:25 60.48050 5.08401 3269 ft 201 kts 101°
2026-05-06 09:25 60.47786 5.11134 3184 ft 200 kts 108°
2026-05-06 09:25 60.47176 5.13642 3079 ft 198 kts 130°
2026-05-06 09:25 60.46181 5.15514 3003 ft 194 kts 152°
2026-05-06 09:26 60.44950 5.16534 3006 ft 191 kts 171°
2026-05-06 09:26 60.43639 5.16987 2903 ft 191 kts 173°
2026-05-06 09:26 60.42336 5.17427 2710 ft 188 kts 173°
2026-05-06 09:26 60.41060 5.17860 2430 ft 182 kts 173°
2026-05-06 09:27 60.39862 5.18267 2160 ft 168 kts 173°
2026-05-06 09:27 60.38781 5.18634 1957 ft 148 kts 173°
2026-05-06 09:27 60.37806 5.18963 1750 ft 138 kts 174°
2026-05-06 09:27 60.36876 5.19276 1558 ft 134 kts 174°
2026-05-06 09:28 60.35963 5.19583 1371 ft 133 kts 173°
2026-05-06 09:28 60.35039 5.19893 1169 ft 135 kts 172°
2026-05-06 09:28 60.34114 5.20205 978 ft 135 kts 172°
2026-05-06 09:28 60.33198 5.20514 785 ft 132 kts 172°
2026-05-06 09:29 60.32302 5.20816 594 ft 130 kts 171°
2026-05-06 09:29 60.31417 5.21112 418 ft 128 kts 171°
2026-05-06 09:29 60.30545 5.21398 236 ft 126 kts 170°
2026-05-06 09:29 60.29701 5.21686 167 ft 113 kts 171°
2026-05-06 09:30 60.29125 5.21875 153 ft 42 kts 169°
2026-05-06 09:30 60.28967 5.21941 151 ft 16 kts 167°
2026-05-06 09:30 60.28920 5.22107 150 ft 12 kts 85°
2026-05-06 09:30 60.28929 5.22232 151 ft 8 kts 83°
2026-05-06 09:31 60.28933 5.22325 151 ft 6 kts 85°
2026-05-06 09:31 60.28922 5.22395 151 ft 5 kts 137°
2026-05-06 09:31 60.28894 5.22409 150 ft 4 kts 171°
2026-05-06 09:31 60.28870 5.22417 150 ft 3 kts 168°
2026-05-06 09:32 60.28848 5.22426 150 ft 4 kts 170°
2026-05-06 09:32 60.28833 5.22449 150 ft 2 kts 106°
2026-05-06 09:32 60.28836 5.22468 150 ft 1 kts 69°
2026-05-06 09:32 60.28847 5.22511 150 ft 4 kts 62°
2026-05-06 09:33 60.28854 5.22541 150 ft 0 kts 66°